Warning: Javascript must be enabled to use all the features on this page!


Page Loading - Please Wait...

* We've detected you're using a mobile device. Find our Next Generation Station Page here.
Click to hideNews Bulletins

Peak Streamflow for the Nation

USGS 13266000 WEISER RIVER NR WEISER ID

Washington County, Idaho
Hydrologic Unit Code 17050124
Latitude  44°16'12", Longitude 116°46'20" NAD83
Drainage area 1,450  square miles
Gage datum 2,206.10 feet above NGVD29
Output formats
Table
Graph
Tab-separated file
peakfq (watstore) format
Reselect output format
Water
Year
Date Gage
Height
(feet)
Stream-
flow
(cfs)
1890 1890-03-19   11,2001
1891 1891-03-27   9,3001
1895 1895-03-28   4,3001
1896 1896-05-05 9.50 12,800
1897 1897-04-20   10,5001
1898 1898-04-17   3,5001
1899 1899-03-27   7,8501
1900 1900-03-08   10,6001
1901 1901-02-27   8,7301
1902 1902-02-10   9,1801
1903 1903-03-15   14,5001
1904 1904-03-08   16,9001
1911 1911-02-01   6,0101,5
1912 1912-05-01   5,0701,5
1913 1913-03-30   9,2201,5
1914 1914-02-25   4,9001,5
1953 1953-01-18 9.143 13,0005
1954 1954-01-17 7.633 7,8505
1955 1955-04-22 6.773 6,1705
1956 1955-12-23 11.063 19,9005
1957 1957-02-25 10.813 19,0005
1958 1958-02-25 10.363 17,3005
1959 1959-01-28 6.873 6,6305
1960 1960-03-22 7.013 6,9605
1961 1961-02-01 7.722,3 8,7805
1962 1962-02-14 7.522,3 7,6205
1963 1963-02-03 9.783 14,6005
1964 1964-04-01 9.943 15,1005
1965 1964-12-23 10.503 17,2005
1966 1966-03-09 6.883 6,5305
1967 1967-01-30 9.343 13,6005
1968 1968-02-21 8.973 12,3005
1969 1969-03-31 7.913 8,8105
1970 1970-01-27 10.293 16,9005
1971 1971-03-27 8.613 10,8005
1972 1972-02-29 9.593 14,5005
1973 1973-01-17 9.283 13,5005
1974 1974-01-17 14.603 13,4005
1975 1975-05-16 11.95 6,7005
1976 1976-04-09 8.27 6,1205
1977 1977-05-11 4.33 3445
1978 1977-12-15 10.45 12,1005
1979 1979-03-16 8.272 6,0805
1980 1980-02-19 9.822 10,2005
1981 1981-02-19 9.52 9,9705
1982 1982-02-22 12.04 21,0005
1983 1983-03-13 10.24 13,2005
1984 1984-03-17 11.18 15,8005
1985 1985-04-03 8.42 6,2105
1986 1986-02-23 11.60 18,0005
1987 1987-03-06 9.00 7,6905
1988 1988-03-02 5.85 1,9005
1989 1989-03-25 10.20 11,4005
1990 1990-03-11 7.22 4,2505
1991 1991-05-09 6.26 2,4505
1992 1992-02-20 8.35 6,4505
1993 1993-03-25 11.965 21,7005
1994 1994-03-05 6.88 3,4205
1995 1995-02-02 10.212 11,4005
1996 1996-05-18 10.72 12,9005
1997 1997-01-02 17.201 34,5005
1998 1998-05-27 11.77 17,0005
1999 1999-02-25 10.12 10,8005
2000 2000-02-28 11.67 16,6005
2001 2001-03-10 7.63 4,2405
2002 2002-04-15 9.25 8,1605
2003 2003-01-27 8.63 6,5005
2004 2004-03-14 7.83 4,6605
2005 2005-03-28 9.33 8,3905
2006 2005-12-29 12.01 18,0005
2007 2006-12-27 7.49 3,9705
2008 2008-05-19 8.41 5,9605
2009 2009-03-03 8.27 5,6305
2010 2010-06-05 11.19 14,7005
2011 2011-03-16 12.15 18,6005
2012 2012-01-21 9.73 9,9205
2013 2012-12-03 9.00 7,9405
2014 2014-03-11 11.79 16,1005
2015 2014-12-21 9.34 8,8405
2016 2016-03-14 9.86 10,3005
2017 2017-02-10 12.00 16,7005
2018 2018-03-23 8.06 5,3505
2019 2019-04-09 12.90 19,5005
2020 2020-01-29 7.30 3,5805
?
  Peak Gage-Height Qualification Codes.
?
  Peak Streamflow Qualification Codes.